Address 0xbf84aeb450a516889106407afe8c22bdd29bed44

 
Txn Hash Method
Block
From
To
Value [Txn Fee]
0x6d2d77471a9e7d972b507a35691bde7b6f760f294a582441cd892f87a75212600x1de9c881110778332021-09-20 11:29:5921 mins ago0xbf84aeb450a516889106407afe8c22bdd29bed44OUT 0x2138c55179d2b8a809b2554f7236b05ac5b293d30 BNB0.00024804767
0xbbe07d5c90af76563872f85128314df1ae73de91f525c14e7c6d6b14d442254d0x1de9c881110777792021-09-20 11:27:1723 mins ago0xbf84aeb450a516889106407afe8c22bdd29bed44OUT 0x7918fe9f8411c764681ff34cec19e372ce1de6ed0 BNB0.00018419
0x2400f13f4e58fa1acb87d2181c29aa41d6652191b0287d69266bf05817abc2310x1de9c881110774732021-09-20 11:11:5939 mins ago0xbf84aeb450a516889106407afe8c22bdd29bed44OUT 0x2138c55179d2b8a809b2554f7236b05ac5b293d30 BNB0.000973566
0x492601077ac168ba704e88797f6c1848e8438193015a366bdf3a1b581ba9a5baTransfer110774052021-09-20 11:08:3542 mins ago0xbf84aeb450a516889106407afe8c22bdd29bed44SELF0xbf84aeb450a516889106407afe8c22bdd29bed440 BNB0.00011655
0xaa96046f0f30142d4e7a327950fd44987922387474f8e3ae4de746390fdff02a0x1de9c881110769562021-09-20 10:46:071 hr 5 mins ago0xbf84aeb450a516889106407afe8c22bdd29bed44OUT 0xb5e42a9285f53da20dd9fdf17c6e25040949f2480 BNB0.00036827
0x288c15564f021b75104847a394a70d5993dc27fac71bfd716cd563719c07f3b10x1de9c881110768782021-09-20 10:42:131 hr 8 mins ago0xbf84aeb450a516889106407afe8c22bdd29bed44OUT 0xb5e42a9285f53da20dd9fdf17c6e25040949f2480 BNB0.000220955
0xd756d9077df80ad57c1a3815a523ff8e89af83766f50e9b6c658d6d5b7aa84fa0x1de9c881110767522021-09-20 10:35:551 hr 15 mins ago0xbf84aeb450a516889106407afe8c22bdd29bed44OUT 0x2138c55179d2b8a809b2554f7236b05ac5b293d30 BNB0.00018443
0x6df63044c8d15cca85593a4905a71f6014845b10289a8c68bf5c5be4d81abd3a0x1de9c881110742902021-09-20 8:32:493 hrs 18 mins ago0xbf84aeb450a516889106407afe8c22bdd29bed44OUT 0xb5e42a9285f53da20dd9fdf17c6e25040949f2480 BNB0.000230245
0x43f211b5b65c41d9cc5b48b438b243f7bf834b6942fd45fd71533802cc39280aTransfer110736602021-09-20 8:01:173 hrs 49 mins ago0xbf84aeb450a516889106407afe8c22bdd29bed44SELF0xbf84aeb450a516889106407afe8c22bdd29bed440 BNB0.00011655
0x78241db3d16f8f2b9dbb5d2c0c22306270e418d4b78e3576f60053ed352530ec0x1de9c881110735402021-09-20 7:55:173 hrs 55 mins ago0xbf84aeb450a516889106407afe8c22bdd29bed44OUT 0xb5e42a9285f53da20dd9fdf17c6e25040949f2480 BNB0.001455769
0xbc7fadb884cbe8c82400294da94a49604e471d6276b09b4d8a44d486f843d9910x1de9c881110731382021-09-20 7:35:114 hrs 15 mins ago0xbf84aeb450a516889106407afe8c22bdd29bed44OUT 0x2138c55179d2b8a809b2554f7236b05ac5b293d30 BNB0.0020944625
0x2a3de14e73d6e7fe95ddff34cb3f7104184691bd51a0cecd32d49d6935407f680x1de9c881110725952021-09-20 7:08:024 hrs 43 mins ago0xbf84aeb450a516889106407afe8c22bdd29bed44OUT 0xb5e42a9285f53da20dd9fdf17c6e25040949f2480 BNB0.00022089
0x7e0ff8b94acf922884a8494c25e9eac9de20169f4220752188f6bac00568e8980x1de9c881110715902021-09-20 6:17:455 hrs 33 mins ago0xbf84aeb450a516889106407afe8c22bdd29bed44OUT 0x7918fe9f8411c764681ff34cec19e372ce1de6ed0 BNB0.000221245
0x23f9e5e03813891e36e0922cc07b3a88dc96b393f09869245d67aeb7c0bb55250x1de9c881110715812021-09-20 6:17:185 hrs 33 mins ago0xbf84aeb450a516889106407afe8c22bdd29bed44OUT 0x7918fe9f8411c764681ff34cec19e372ce1de6ed0 BNB0.000230145
0x8e077487ca7c9004c139665a0401d3de22dd70c0df69ea94070b4c2012b60545Transfer110715222021-09-20 6:14:215 hrs 36 mins ago0xbf84aeb450a516889106407afe8c22bdd29bed44SELF0xbf84aeb450a516889106407afe8c22bdd29bed440 BNB0.00011655
0xac83a4a8a55b1da7d924ac63fbd55270347b7560c5b4b1fb31c46ef8f7c7701e0x1de9c881110712982021-09-20 6:03:095 hrs 48 mins ago0xbf84aeb450a516889106407afe8c22bdd29bed44OUT 0x7918fe9f8411c764681ff34cec19e372ce1de6ed0 BNB0.0001791171
0xf9689aa9fefbac1eb083c5707dbcbce4a8a38e3a325adca7b286adddd7090dfc0x1de9c881110678262021-09-20 3:09:338 hrs 41 mins ago0xbf84aeb450a516889106407afe8c22bdd29bed44OUT 0xb5e42a9285f53da20dd9fdf17c6e25040949f2480 BNB0.00018443
0x395153a337e6f1a19f428e8de4ec30c77b8e1b4c2a3f552b3ec5276be32b645bTransfer110678002021-09-20 3:08:158 hrs 42 mins ago0xbf84aeb450a516889106407afe8c22bdd29bed44SELF0xbf84aeb450a516889106407afe8c22bdd29bed440 BNB0.00011655
0xb7cc53018c7cbed1051e008b246e8ce2a78cd12fb7f9e038409a86296ba7e437Transfer110676962021-09-20 3:03:028 hrs 48 mins ago0xbf84aeb450a516889106407afe8c22bdd29bed44SELF0xbf84aeb450a516889106407afe8c22bdd29bed440 BNB0.00011655
0xb2b0d8fe904e6d8dedb7116e046ddec3f61bdb73713fb6cdc3960d989190b41c0x1de9c881110673612021-09-20 2:46:179 hrs 4 mins ago0xbf84aeb450a516889106407afe8c22bdd29bed44OUT 0xb5e42a9285f53da20dd9fdf17c6e25040949f2480 BNB0.000221245
0x22f603fcc2d732cc0a29843f19559eba75f13fbef23f1d45e7edaa8d6975faeb0x1de9c881110671262021-09-20 2:34:329 hrs 16 mins ago0xbf84aeb450a516889106407afe8c22bdd29bed44OUT 0x2138c55179d2b8a809b2554f7236b05ac5b293d30 BNB0.0001913184
0x53e18bfeecc289e7c46f30482174c4ecf736d55761ba79d6a96ff934f3110a780x1de9c881110661992021-09-20 1:48:1110 hrs 2 mins ago0xbf84aeb450a516889106407afe8c22bdd29bed44OUT 0x2138c55179d2b8a809b2554f7236b05ac5b293d30 BNB0.000221245
0x433012a32a9384d0b0830da654df40a7f2fa915b3f931e544d0854c1aea2235b0x1de9c881110651552021-09-20 0:55:5910 hrs 55 mins ago0xbf84aeb450a516889106407afe8c22bdd29bed44OUT 0xb5e42a9285f53da20dd9fdf17c6e25040949f2480 BNB0.000280224
0x3acaf9255627660d6d5f39cce8c002310f13a43b9ff47a82f3d59c3e7ae38c2cTransfer110645292021-09-20 0:24:4111 hrs 26 mins ago0xbf84aeb450a516889106407afe8c22bdd29bed44SELF0xbf84aeb450a516889106407afe8c22bdd29bed440 BNB0.00011655
0x88c45122b19a92ffff2a6b46641c52a9fb1c7097443e7688cf3c218ae39c437d0x1de9c881110642182021-09-20 0:09:0811 hrs 42 mins ago0xbf84aeb450a516889106407afe8c22bdd29bed44OUT 0xb5e42a9285f53da20dd9fdf17c6e25040949f2480 BNB0.000284067
[ Download CSV Export 
Parent Txn Hash Block From To Value
Loading

Contract Name:
0 BNB

Compiler Version
0

Optimization Enabled:
0 BNB

Other Settings:
-NA-
Block Transaction Gas Used Reward
Age Block Fee Address BC Fee Address Voting Power Jailed Incoming
Block Uncle Number Difficulty Gas Used Reward
Loading
Loading
Make sure to use the "Vote Down" button for any spammy posts, and the "Vote Up" for interesting conversations.